Location: Huppendorf
(49.9333°N, 11.1500°E)
Time: 17:54:14
(UTC+00:00)

Meteor 1-20 Rocket - Pass Details

Date: 27 February 2020
Orbit: 820 x 891 km, 81.2° (Epoch: 27 March)

Event Time Altitude Azimuth Distance (km) Brightness Sun altitude
Rises 18:13:42 0° 190° (S) 3,348 7.4 -13.7°
Reaches altitude 10° 18:16:04 10° 191° (S) 2,424 6.7 -14.1°
Maximum altitude 18:21:34 88° 281° (W) 843 4.2 -15.0°
Drops below altitude 10° 18:27:12 10° 12° (NNE) 2,481 6.6 -15.9°
Sets 18:29:39 0° 13° (NNE) 3,432 7.3 -16.2°
